Location: Penton Mewsey
(51.2167°N, 1.5167°W)
Time: 18:48:56
(UTC+00:00)

Envisat - Pass Details

Date: 14 March 2021
Orbit: 764 x 766 km, 98.1° (Epoch: 21 April)

Event Time Altitude Azimuth Distance (km) Brightness Sun altitude
Rises 04:48:15 0° 23° (NNE) 3,246 6.8 -15.4°
Reaches altitude 10° 04:51:00 10° 37° (NE) 2,314 6.3 -15.0°
Maximum altitude 04:55:08 25° 91° (E) 1,533 5.5 -14.3°
Drops below altitude 10° 04:59:14 10° 146° (SE) 2,299 5.7 -13.7°
Sets 05:01:56 0° 160° (SSE) 3,219 6.3 -13.3°
